Volver al catálogo

STARLINK-38222

ActivoComunicacionesSSO
NORAD 100101·PAYLOAD·🇺🇸 United States

Lanzado Jul 21, 2026 desde Vandenberg Space Force Base

Loading…

Próximos Pases (próximas 24 horas)

TLE

ActualizadoSource: Space-Track

Época: Sep 14, 2026, 22:06 UTC

1 A0101U 26166A   26257.92096436  .00019555  00000-0  54193-3 0  9994
2 A0101  97.2843 275.0536 0001566  91.6846 268.4578 15.36989638  8665

Sigue STARLINK-38222 en tiempo real con AllMySat

Download on the App Store